Home   Weather   Yokohama   Past weeks

Flag for Japan Past Weather in Yokohama, Japan — Yesterday and Last 2 Weeks

Now
84 °F

Partly sunny.


Feels Like: 92 °F
Forecast: 82 / 91 °F
Wind: 20 mph from Southwest

Location: Tokyo International Airport

Current Time: Jul 24, 2017 at 6:02:10 pm

Latest Report: Jul 24, 2017 at 5:30 pm


Visibility: N/A

Pressure: 29.53 "Hg

Humidity: 74%

Dew Point: 75 °F

Location of YokohamaLocation

Past Weather in Yokohama — Graph

°F

Yokohama Temperature Yesterday

Maximum temperature yesterday: 82 °F (at 7:30 am)
Minimum temperature yesterday: 79 °F (at 1:49 am)
Average temperature yesterday: 81 °F

High & Low Weather Summary for the Past Weeks

 TemperatureHumidityPressure
High91 °F (Jul 21, 12:30 pm)100% (Jul 17, 4:30 am)29.92 "Hg (Jul 17, 4:30 am)
Low75 °F (Jul 18, 11:30 pm)55% (Jul 21, 2:30 pm)29.53 "Hg (Jul 24, 2:30 pm)
Average82 °F80%29.81 "Hg
* Reported Jul 9 4:00 pm — Jul 24 4:30 pm, Yokohama. Weather by CustomWeather, © 2017

Note: Actual official high and low records may vary slightly from our data, if they occured in-between our weather recording intervals... More about our weather records

Advertising

Yokohama Weather History for the Previous 24 Hours

Scroll right to see more
 ConditionsComfort  
Time TempWeatherWind HumidityBarometerVisibility
4:30 pm
Mon, Jul 24
86 °FPartly sunny.20 mph75%29.53 "HgN/A
4:00 pm86 °FPartly sunny.22 mph75%29.53 "HgN/A
3:30 pm86 °FPartly sunny.25 mph75%29.53 "HgN/A
3:00 pm86 °FPartly sunny.29 mph70%29.53 "HgN/A
2:30 pm88 °FPartly sunny.20 mph70%29.53 "HgN/A
1:30 pm88 °FBroken clouds.21 mph70%29.56 "HgN/A
1:00 pm88 °FBroken clouds.25 mph70%29.56 "HgN/A
12:30 pm86 °FPartly sunny.25 mph75%29.56 "HgN/A
12:00 pm86 °FBroken clouds.24 mph70%29.59 "HgN/A
11:30 am88 °FPartly sunny.25 mph66%29.59 "HgN/A
11:17 am90 °FPartly sunny.21 mph63%29.59 "HgN/A
11:00 am90 °FPartly sunny.22 mph63%29.59 "HgN/A
10:30 am88 °FPartly sunny.22 mph66%29.59 "HgN/A
10:00 am88 °FPartly sunny.18 mph66%29.59 "HgN/A
9:30 am88 °FPartly sunny.17 mph70%29.59 "HgN/A
9:00 am84 °FPartly sunny.17 mph74%29.59 "HgN/A
8:30 am82 °FPartly sunny.15 mph79%29.59 "HgN/A
8:00 am82 °FPartly sunny.15 mph79%29.62 "HgN/A
7:30 am82 °FBroken clouds.17 mph79%29.59 "HgN/A
7:00 am82 °FBroken clouds.16 mph79%29.59 "HgN/A
6:30 am81 °FPartly sunny.16 mph84%29.59 "HgN/A
6:00 am81 °FBroken clouds.17 mph84%29.59 "HgN/A
5:30 am81 °FBroken clouds.14 mph84%29.59 "HgN/A
5:00 am81 °FBroken clouds.14 mph84%29.59 "HgN/A
4:30 am81 °FPartly cloudy.15 mph84%29.59 "HgN/A
4:00 am81 °FPartly cloudy.14 mph84%29.59 "HgN/A
3:30 am81 °FPassing clouds.13 mph79%29.59 "HgN/A
3:00 am81 °FPartly cloudy.13 mph84%29.59 "HgN/A
2:30 am81 °FPassing clouds.14 mph84%29.59 "HgN/A
2:00 am81 °FPartly cloudy.15 mph84%29.59 "HgN/A
1:30 am81 °FPartly cloudy.14 mph84%29.62 "HgN/A
1:00 am81 °FPassing clouds.16 mph84%29.62 "HgN/A
12:30 am81 °FPassing clouds.15 mph84%29.62 "HgN/A
12:00 am81 °FPassing clouds.15 mph84%29.62 "HgN/A
11:30 pm
Sun, Jul 23
81 °FScattered showers. Partly cloudy.15 mph84%29.65 "HgN/A
10:30 pm81 °FPassing clouds.16 mph89%29.65 "HgN/A
10:00 pm81 °FPassing clouds.15 mph89%29.65 "HgN/A
9:30 pm81 °FPassing clouds.15 mph89%29.65 "HgN/A
8:30 pm82 °FScattered showers. Passing clouds.13 mph79%29.65 "HgN/A
8:00 pm81 °FPassing clouds.16 mph84%29.65 "HgN/A
7:30 pm81 °FPassing clouds.16 mph89%29.65 "HgN/A
7:00 pm81 °FPassing clouds.18 mph89%29.65 "HgN/A
6:30 pm81 °FPartly sunny.20 mph89%29.65 "HgN/A
6:00 pm81 °FBroken clouds.21 mph89%29.65 "HgN/A
Weather by CustomWeather, © 2017

See weather overviewHow to use our weather pages